Regional Weather Roundup
Issued by NWS

Home | Current Version | Previous Version | Text Only | Print | Product List | Glossary On
Versions: 1 2 3 4 5 6 7 8 9 10 11 12 13 14 15 16 17 18 19 20 21 22 23 24 25 26 27 28 29 30 31 32 33 34 35 36 37 38 39 40 41 42 43 44 45 46 47 48 49 50
000
ASUS46 KSEW 281710
RWRWA

WASHINGTON REGIONAL WEATHER ROUNDUP
NATIONAL WEATHER SERVICE SEATTLE WA
1000 AM PDT WED JUN 28 2017

NOTE:"FAIR" INDICATES FEW OR NO CLOUDS BELOW 12,000 FEET WITH NO
SIGNIFICANT WEATHER AND/OR OBSTRUCTIONS TO VISIBILITY.

WAZ507-509-555>559-281800-
SEATTLE, TACOMA, EVERETT, AND VICINITY

CITY           SKY/WX    TMP DP  RH WIND       PRES   REMARKS
EVERETT        CLOUDY    59  51  75 S9        30.04R
BOEING FIELD   CLOUDY    59  53  80 SW7       30.04R
RENTON         CLOUDY    60  51  72 S5        30.04R
SEATAC AIRPORT CLOUDY    59  50  72 SW12      30.04S
JBLM-MCCHORD   CLOUDY    60  53  80 W10       30.04S
PUYALLUP       CLOUDY    59  54  82 CALM      30.04S
BREMERTON      CLOUDY    57  51  80 SW9       30.04R
JBLM-FT LEWIS  CLOUDY    59  54  83 S8        30.04R
TACOMA NARROWS CLOUDY    57  50  77 S8        30.04S
$$

WAZ001-503-506-510-514-515-281800-
NORTH INTERIOR

CITY           SKY/WX    TMP DP  RH WIND       PRES   REMARKS
BELLINGHAM     CLOUDY    59  54  83 S9        30.02R
FRIDAY HARBOR  CLOUDY    52  52 100 E6        30.03R
EASTSOUND      CLOUDY    61  54  77 CALM      30.02R
PORT ANGELES   SUNNY     59  52  77 VRB6      30.02R
EDIZ HOOK      FAIR      57  50  77 NW8       30.02R
PORT TOWNSEND  CLOUDY    57  54  88 E5        30.03R
NAS WHIDBEY    CLOUDY    58  49  72 W8        30.07R
ARLINGTON      CLOUDY    59  53  80 SW7       30.04R
BURLINGTON     CLOUDY    61  55  82 S6        30.03R
$$

WAZ020-022-039-040-504-511-512-281800-
SOUTHWEST INTERIOR

CITY           SKY/WX    TMP DP  RH WIND       PRES   REMARKS
SHELTON        NOT AVBL
OLYMPIA        CLOUDY    57  53  86 SW7       30.05R
CHEHALIS       CLOUDY    59  54  82 W5        30.06R
KELSO          CLOUDY    60  49  66 CALM      30.07S
VANCOUVER      CLOUDY    61  53  75 CALM      30.07R
SCAPPOOSE, OR  CLOUDY    60  51  72 CALM      30.06R
PORTLAND, OR   CLOUDY    60  51  72 CALM      30.07S
$$

WAZ021-516-517-281800-
WASHINGTON COAST

CITY           SKY/WX    TMP DP  RH WIND       PRES   REMARKS
FORKS          CLOUDY    59  51  75 VRB5      30.02R
HOQUIAM        CLOUDY    57  52  83 SW7       30.05S HAZE
ASTORIA, OR    CLOUDY    58  51  78 W6        30.07R
$$

WAZ019-023-024-040-567>569-281800-
CASCADE MOUNTAINS AND COLUMBIA GORGE

CITY           SKY/WX    TMP DP  RH WIND       PRES   REMARKS
STAMPEDE PASS  PTSUNNY   52  47  83 VRB7      30.01S
TROUTDALE, OR  CLOUDY    60  51  72 S5        30.07R
HOOD RIVER, OR SUNNY     63  48  59 NW12G25   29.99R
THE DALLES, OR SUNNY     69  50  50 NW20G28   29.93R
$$

WAZ026-027-041>044-520-521-281800-
EAST SLOPES

CITY           SKY/WX    TMP DP  RH WIND       PRES   REMARKS
OMAK           SUNNY     76  42  29 N14G24    29.82S
WENATCHEE      SUNNY     73  41  31 W18G24    29.83F
ELLENSBURG     SUNNY     70  46  42 NW24G37   29.86S
YAKIMA         SUNNY     77  46  33 N12       29.85F
SUNNYSIDE ARPT SUNNY     70  46  42 W13G21    29.85S
YAKIMA TC      FAIR      74  42  31 W13       29.83F
$$

WAZ028-034-035-281800-
COLUMBIA BASIN

CITY           SKY/WX    TMP DP  RH WIND       PRES   REMARKS
EPHRATA        SUNNY     77  34  21 NW9       29.81S
MOSES LAKE     SUNNY     75  40  28 S7        29.82F
PASCO          SUNNY     75  47  36 SW12      29.84F
RICHLAND ARPT  SUNNY     77  41  28 CALM      29.84S
HERMISTON, OR  SUNNY     73  48  41 SW15G25   29.87F
$$

WAZ036>038-281800-
NORTHEAST WASHINGTON

CITY           SKY/WX    TMP DP  RH WIND       PRES   REMARKS
SPOKANE GEIGER MOSUNNY   65  45  48 S13       29.86S
SPOKANE FELTS  SUNNY     68  46  45 SW15      29.86S
FAIRCHILD AFB  SUNNY     65  44  46 S9        29.85S
COEURDALENE,ID SUNNY     67  47  48 SW5       29.87S
DEER PARK      MOSUNNY   65  46  50 S8        29.86S
$$

WAZ029>033-281800-
SOUTHEAST WASHINGTON

CITY           SKY/WX    TMP DP  RH WIND       PRES   REMARKS
PULLMAN        SUNNY     66  44  45 W16G22    29.91S
LEWISTON, ID   SUNNY     71  47  42 NW3       29.86R
WALLA WALLA    SUNNY     73  46  38 S17       29.88F
PENDLETON, OR  SUNNY     70  45  40 W14G23    29.90S
$$



USA.gov is the U.S. government's official web portal to all federal, state and local government web resources and services.